Ward, CO

11:27 AM MDT on July 28, 2016 (GMT -0600)
Niwot Ridge Corona Pass

Weather History for KCRV - January, 2003

Change the Weather History Date:

Saturday, January 11, 2003

  Actual Average (KBDU) Record (KBDU)
Temperature  
Mean Temperature 24 °F -  
Max Temperature 28 °F - 59 °F (2014)
Min Temperature 19 °F - 12 °F (2016)
Degree Days  
Heating Degree Days 42    
Month to date heating degree days  
Cooling Degree Days 0    
Month to date cooling degree days  
Moisture  
Dew Point 18 °F    
Average Humidity 84    
Maximum Humidity 93    
Minimum Humidity 69    
Precipitation  
Precipitation 0.00 in - 0.00 in (2016)
Sea Level Pressure  
Sea Level Pressure 30.04 in    
Wind  
Wind Speed 19 mph (West)    
Max Wind Speed 39 mph    
Max Gust Speed 55 mph    
Visibility 6 miles    
Events Snow    
T = Trace of Precipitation, MM = Missing Value Source: NWS Daily Summary

Daily Weather History Graph

Daily Weather History Graph

Search for Another Location

Airport or City:

Trip Planner

Search our weather history database for the weather conditions in past years. The results will help you decide how hot, cold, wet, or windy it might be!

Date:

Astronomy

Jan. 11, 2003 Rise Set
Actual Time 7:23 AM MST 4:56 PM MST
Civil Twilight 6:53 AM MST 5:26 PM MST
Nautical Twilight 6:20 AM MST 6:00 PM MST
Astronomical Twilight 5:47 AM MST 6:33 PM MST
Moon 12:17 PM MST (1/11) 1:00 AM MST (1/11)
Length of Visible Light 10h 33m
Length of Day
9h 33m
First Quarter, 61% of the Moon is Illuminated
Jan 11
First Quarter
Jan 18
Full
Jan 25
Last Quarter
Feb 1
New
Feb 9
First Quarter

Hourly Weather History & Observations

Time (MST) Temp. Windchill Dew Point Humidity Pressure Visibility Wind Dir Wind Speed Gust Speed Precip Events Conditions
12:09 AM 19.4 °F -0.6 °F 17.6 °F 93% 29.97 in 0.5 mi NW 34.5 mph 44.9 mph N/A Snow Snow
12:29 AM 19.4 °F -1.6 °F 17.6 °F 93% 29.95 in 0.2 mi WNW 39.1 mph 49.5 mph N/A Snow Heavy Snow
12:49 AM 19.4 °F -1.3 °F 17.6 °F 93% 29.96 in 0.2 mi WNW 38.0 mph 55.2 mph N/A Snow Heavy Snow
1:09 AM 19.4 °F -1.1 °F 17.6 °F 93% 29.96 in 0.2 mi West 36.8 mph 44.9 mph N/A Snow Heavy Snow
1:29 AM 19.4 °F 1.4 °F 17.6 °F 93% 29.99 in 0.5 mi West 26.5 mph 44.9 mph N/A Snow Snow
1:49 AM 19.4 °F 9.5 °F 17.6 °F 93% 30.01 in 1.5 mi SSW 8.1 mph - N/A Snow Light Snow
2:09 AM 19.4 °F 3.6 °F 17.6 °F 93% 30.02 in 2.5 mi WNW 19.6 mph 27.6 mph N/A Snow Light Snow
2:29 AM 19.4 °F 0.5 °F 17.6 °F 93% 29.99 in 1.0 mi WNW 29.9 mph 39.1 mph N/A Snow Light Snow
2:49 AM 19.4 °F -0.8 °F 17.6 °F 93% 29.97 in 0.8 mi WNW 35.7 mph 40.3 mph N/A Snow Light Snow
3:09 AM 21.2 °F 3.3 °F 15.8 °F 80% 30.00 in 1.0 mi WNW 28.8 mph 40.3 mph N/A Snow Light Snow
3:29 AM 21.2 °F 4.2 °F 15.8 °F 80% 30.01 in 4.0 mi NW 25.3 mph 32.2 mph N/A Snow Light Snow
3:49 AM 21.2 °F 4.5 °F 15.8 °F 80% 30.01 in 7.0 mi NW 24.2 mph 29.9 mph N/A   Overcast
4:09 AM 21.2 °F 6.0 °F 15.8 °F 80% 30.01 in 5.0 mi NW 19.6 mph 32.2 mph N/A   Haze
4:29 AM 21.2 °F 6.0 °F 15.8 °F 80% 30.01 in 4.0 mi WNW 19.6 mph 32.2 mph N/A   Haze
4:49 AM 21.2 °F 5.2 °F 15.8 °F 80% 30.02 in 7.0 mi NW 21.9 mph 28.8 mph N/A   Overcast
5:09 AM 21.2 °F 5.6 °F 15.8 °F 80% 30.01 in 7.0 mi WNW 20.7 mph 27.6 mph N/A   Overcast
5:29 AM 21.2 °F 5.2 °F 15.8 °F 80% 30.02 in 10.0 mi NW 21.9 mph 26.5 mph N/A   Overcast
5:49 AM 19.4 °F 3.2 °F 15.8 °F 86% 30.02 in 7.0 mi WNW 20.7 mph 25.3 mph N/A   Overcast
6:09 AM 19.4 °F 5.0 °F 17.6 °F 93% 30.04 in 7.0 mi West 16.1 mph 27.6 mph N/A   Mostly Cloudy
6:29 AM 19.4 °F 4.1 °F 15.8 °F 86% 30.04 in 10.0 mi NW 18.4 mph 24.2 mph N/A   Overcast
6:49 AM 21.2 °F 8.3 °F 15.8 °F 80% 30.04 in 10.0 mi NW 13.8 mph 21.9 mph N/A   Overcast
7:09 AM 21.2 °F 6.4 °F 14.0 °F 74% 30.04 in 10.0 mi NW 18.4 mph 24.2 mph N/A   Overcast
7:29 AM 21.2 °F 7.8 °F 15.8 °F 80% 30.04 in 10.0 mi WNW 15.0 mph - N/A   Overcast
7:49 AM 21.2 °F 16.4 °F 15.8 °F 80% 30.06 in 10.0 mi East 3.5 mph 9.2 mph N/A   Overcast
8:09 AM 19.4 °F - 17.6 °F 93% 30.06 in 10.0 mi Calm Calm - N/A   Overcast
8:29 AM 19.4 °F - 17.6 °F 93% 30.07 in 10.0 mi Calm Calm - N/A   Overcast
8:49 AM 21.2 °F - 15.8 °F 80% 30.07 in 10.0 mi Calm Calm - N/A   Overcast
9:09 AM 21.2 °F - 15.8 °F 80% 30.08 in 10.0 mi Calm Calm - N/A   Overcast
9:29 AM 21.2 °F - 15.8 °F 80% 30.08 in 10.0 mi Calm Calm - N/A   Overcast
9:49 AM 21.2 °F - 15.8 °F 80% 30.09 in 10.0 mi Calm Calm - N/A   Overcast
10:09 AM 23.0 °F 15.8 °F 19.4 °F 86% 30.09 in 10.0 mi South 5.8 mph - N/A   Overcast
10:29 AM 24.8 °F 20.5 °F 19.4 °F 80% 30.09 in 10.0 mi South 3.5 mph - N/A   Mostly Cloudy
10:49 AM 24.8 °F 19.1 °F 19.4 °F 80% 30.09 in 10.0 mi South 4.6 mph - N/A   Mostly Cloudy
11:09 AM 24.8 °F 20.5 °F 19.4 °F 80% 30.08 in 7.0 mi South 3.5 mph - N/A   Overcast
11:29 AM 24.8 °F 20.5 °F 21.2 °F 86% 30.07 in 10.0 mi South 3.5 mph - N/A   Overcast
11:49 AM 24.8 °F 20.5 °F 19.4 °F 80% 30.06 in 10.0 mi SSE 3.5 mph - N/A   Overcast
12:09 PM 24.8 °F 19.1 °F 21.2 °F 86% 30.05 in 10.0 mi South 4.6 mph - N/A   Overcast
12:29 PM 26.6 °F 21.2 °F 21.2 °F 80% 30.04 in 10.0 mi SW 4.6 mph - N/A   Mostly Cloudy
12:49 PM 26.6 °F 18.2 °F 21.2 °F 80% 30.04 in 10.0 mi SSW 8.1 mph - N/A   Mostly Cloudy
1:09 PM 26.6 °F 20.0 °F 21.2 °F 80% 30.03 in 10.0 mi SSW 5.8 mph - N/A   Mostly Cloudy
1:29 PM 28.4 °F 24.6 °F 19.4 °F 69% 30.03 in 10.0 mi SSW 3.5 mph - N/A   Mostly Cloudy
1:49 PM 28.4 °F 22.2 °F 19.4 °F 69% 30.03 in 10.0 mi WSW 5.8 mph - N/A   Overcast
2:09 PM 26.6 °F 22.6 °F 19.4 °F 74% 30.03 in 10.0 mi SSW 3.5 mph - N/A   Overcast
2:29 PM 24.8 °F - 19.4 °F 80% 30.04 in 2.0 mi Calm Calm - N/A Snow Light Snow
2:49 PM 23.0 °F 14.7 °F 19.4 °F 86% 30.04 in 0.5 mi North 6.9 mph - N/A Snow Light Snow
3:09 PM 23.0 °F - 19.4 °F 86% 30.04 in 2.5 mi Calm Calm - N/A Snow Light Snow
3:29 PM 24.8 °F 20.5 °F 19.4 °F 80% 30.04 in 7.0 mi West 3.5 mph - N/A Snow Light Snow
3:49 PM 23.0 °F - 19.4 °F 86% 30.04 in 4.0 mi Calm Calm - N/A Snow Light Snow
4:09 PM 21.2 °F 14.9 °F 19.4 °F 93% 30.05 in 1.0 mi North 4.6 mph - N/A Snow Light Snow
4:29 PM 21.2 °F 16.4 °F 17.6 °F 86% 30.06 in 1.2 mi WNW 3.5 mph - N/A Snow Light Snow
4:49 PM 21.2 °F 14.9 °F 17.6 °F 86% 30.06 in 1.0 mi WNW 4.6 mph - N/A Snow Light Snow
5:09 PM 21.2 °F 11.7 °F 17.6 °F 86% 30.07 in 1.5 mi NW 8.1 mph - N/A Snow Light Snow
5:29 PM 21.2 °F 11.7 °F 17.6 °F 86% 30.07 in 1.5 mi WNW 8.1 mph - N/A Snow Light Snow
5:49 PM 21.2 °F 11.7 °F 19.4 °F 93% 30.08 in 1.0 mi NNW 8.1 mph - N/A Snow Snow
6:09 PM 21.2 °F 13.6 °F 19.4 °F 93% 30.08 in 1.2 mi North 5.8 mph - N/A Snow Light Snow
6:29 PM 21.2 °F 10.9 °F 17.6 °F 86% 30.09 in 1.2 mi NNW 9.2 mph - N/A Snow Light Snow
6:49 PM 21.2 °F 9.5 °F 19.4 °F 93% 30.09 in 0.8 mi North 11.5 mph 18.4 mph N/A Snow Snow
7:09 PM 21.2 °F 8.9 °F 17.6 °F 86% 30.09 in 1.2 mi North 12.7 mph - N/A Snow Snow
7:29 PM 21.2 °F 7.8 °F 17.6 °F 86% 30.09 in 2.0 mi NNW 15.0 mph 20.7 mph N/A Snow Light Snow
7:51 PM 19.4 °F 9.5 °F 17.6 °F 93% 30.09 in 1.8 mi NNW 8.1 mph - N/A Snow Light Snow
8:09 PM 19.4 °F 11.5 °F 17.6 °F 93% 30.09 in 1.2 mi NE 5.8 mph - N/A Snow Light Snow
8:29 PM 19.4 °F 14.3 °F 17.6 °F 93% 30.08 in 1.8 mi East 3.5 mph - N/A Snow Light Snow
8:49 PM 19.4 °F 6.0 °F 15.8 °F 86% 30.08 in 2.5 mi WNW 13.8 mph 19.6 mph N/A Snow Light Snow
9:09 PM 19.4 °F 5.5 °F 15.8 °F 86% 30.08 in 2.0 mi NW 15.0 mph 20.7 mph N/A Snow Light Snow
9:29 PM 17.6 °F 0.5 °F 15.8 °F 93% 30.05 in 1.0 mi WNW 21.9 mph 27.6 mph N/A Snow Light Snow
9:49 PM 17.6 °F -1.9 °F 15.8 °F 93% 30.04 in 0.8 mi NW 29.9 mph 40.3 mph N/A Snow Snow
10:09 PM 17.6 °F -2.8 °F 15.8 °F 93% 30.05 in 0.8 mi WNW 33.4 mph - N/A Snow Light Snow
10:29 PM 17.6 °F -3.1 °F 14.0 °F 86% 30.06 in 0.8 mi WNW 34.5 mph 41.4 mph N/A Snow Snow
10:49 PM 17.6 °F -2.2 °F 14.0 °F 86% 30.07 in 0.8 mi WNW 31.1 mph 35.7 mph N/A Snow Snow
11:09 PM 17.6 °F -2.5 °F 14.0 °F 86% 30.07 in 0.8 mi WNW 32.2 mph 40.3 mph N/A Snow Snow
11:29 PM 15.8 °F -3.7 °F 14.0 °F 93% 30.07 in 0.8 mi WNW 27.6 mph 36.8 mph N/A Snow Light Snow
11:49 PM 15.8 °F -4.1 °F 12.2 °F 86% 30.07 in 0.8 mi WNW 28.8 mph - N/A Snow Snow